• Currently

    Reported at Minneapolis, Minneapolis-St. Paul International Airport, MN
    6:53 PM CST WED APR 26 2017
  • 39°F4°C
  • Drizzle
    Drizzle
  • Feels Like:33°F0°CDew Point:32°F0°CHumidity:75% Winds:N 12 mph 19 kph
    Pressure:29.56 in1001 hPaVisibility:10.00 miles16090.00 meters
Time Weather Temp Dew Point
Humidity Winds Visibility Pressure Precipitation
1 hr 24 hr
Monday, April 17
23:53 23:53 Mostly Cloudy Mostly Cloudy 56°F13°C 31°F-1°C 39% WNW 8 mphWNW 13 kph 10.0 miles16.1 km 30.12 in1020 hPa 0.00 in0.00 mm --
22:53 22:53 Partly Cloudy Partly Cloudy 53°F12°C 32°F0°C 45% WNW 6 mphWNW 9 kph 10.0 miles16.1 km 30.09 in1019 hPa 0.00 in0.00 mm --
21:53 21:53 Partly Cloudy Partly Cloudy 57°F14°C 29°F-2°C 34% W 6 mphW 9 kph 10.0 miles16.1 km 30.06 in1018 hPa 0.00 in0.00 mm --
20:53 20:53 Mostly Clear Mostly Clear 58°F14°C 27°F-3°C 31% W 12 mphW 19 kph 10.0 miles16.1 km 30.06 in1018 hPa 0.00 in0.00 mm --
19:53 19:53 Mostly Sunny Mostly Sunny 61°F16°C 25°F-4°C 25% W 17 mphW 28 kph 10.0 miles16.1 km 30.03 in1017 hPa 0.00 in0.00 mm --
18:53 18:53 Partly Cloudy Partly Cloudy 64°F18°C 25°F-4°C 23% W 17 mphW 28 kph 10.0 miles16.1 km 30.03 in1017 hPa 0.00 in0.00 mm --
17:53 17:53 Partly Cloudy Partly Cloudy 65°F18°C 24°F-4°C 21% W 17 mphW 28 kph 10.0 miles16.1 km 30.03 in1017 hPa 0.00 in0.00 mm --
16:53 16:53 Partly Cloudy Partly Cloudy 65°F18°C 24°F-4°C 21% W 17 mphW 28 kph 10.0 miles16.1 km 30.03 in1017 hPa 0.00 in0.00 mm --
15:53 15:53 Partly Cloudy Partly Cloudy 66°F19°C 29°F-2°C 25% W 17 mphW 28 kph 10.0 miles16.1 km 30.03 in1017 hPa 0.00 in0.00 mm --
14:53 14:53 Mostly Cloudy Mostly Cloudy 64°F18°C 30°F-1°C 28% W 17 mphW 28 kph 10.0 miles16.1 km 30.03 in1017 hPa 0.00 in0.00 mm --
13:53 13:53 Partly Cloudy Partly Cloudy 62°F17°C 33°F1°C 34% W 17 mphW 28 kph 10.0 miles16.1 km 30.06 in1018 hPa 0.00 in0.00 mm --
12:53 12:53 Mostly Sunny Mostly Sunny 62°F17°C 37°F3°C 40% W 17 mphW 28 kph 10.0 miles16.1 km 30.06 in1018 hPa 0.00 in0.00 mm --
11:53 11:53 Mostly Sunny Mostly Sunny 60°F16°C 36°F2°C 41% W 17 mphW 28 kph 10.0 miles16.1 km 30.06 in1018 hPa 0.00 in0.00 mm --
10:53 10:53 Sunny Sunny 57°F14°C 38°F3°C 49% W 17 mphW 28 kph 10.0 miles16.1 km 30.03 in1017 hPa 0.00 in0.00 mm --
09:53 09:53 Sunny Sunny 56°F13°C 38°F3°C 51% WNW 15 mphWNW 24 kph 10.0 miles16.1 km 30 in1016 hPa 0.00 in0.00 mm --
08:53 08:53 Sunny Sunny 53°F12°C 38°F3°C 57% WNW 15 mphWNW 24 kph 10.0 miles16.1 km 29.97 in1015 hPa 0.00 in0.00 mm --
07:53 07:53 Sunny Sunny 50°F10°C 38°F3°C 63% WNW 12 mphWNW 19 kph 10.0 miles16.1 km 29.97 in1015 hPa 0.00 in0.00 mm --
06:53 06:53 Sunny Sunny 48°F9°C 38°F3°C 68% W 9 mphW 15 kph 10.0 miles16.1 km 29.94 in1014 hPa 0.00 in0.00 mm --
05:53 05:53 Clear Clear 48°F9°C 38°F3°C 68% WNW 17 mphWNW 28 kph 10.0 miles16.1 km 29.94 in1014 hPa 0.00 in0.00 mm --
04:53 04:53 Clear Clear 49°F9°C 38°F3°C 66% W 12 mphW 19 kph 10.0 miles16.1 km 29.91 in1013 hPa 0.00 in0.00 mm --
03:53 03:53 Clear Clear 50°F10°C 41°F5°C 71% W 12 mphW 19 kph 10.0 miles16.1 km 29.91 in1013 hPa 0.00 in0.00 mm --
02:53 02:53 Clear Clear 51°F11°C 45°F7°C 80% W 12 mphW 19 kph 10.0 miles16.1 km 29.88 in1012 hPa 0.00 in0.00 mm --
01:53 01:53 Mostly Clear Mostly Clear 52°F11°C 46°F8°C 80% W 12 mphW 19 kph 10.0 miles16.1 km 29.88 in1012 hPa 0.00 in0.00 mm --
00:53 00:53 Mostly Cloudy Mostly Cloudy 53°F12°C 47°F8°C 80% WNW 12 mphWNW 19 kph 10.0 miles16.1 km 29.88 in1012 hPa 0.00 in0.00 mm --